This demonstration page uses our WeatherBlox Daily Observations layout. Learn more.

Left ArrowRight Arrow

39.29038, -76.61219

Hourly Observations for February 13, 2021

Temp ( °F °C ) Dew Point ( °F °C ) Humidity (%) Winds ( mph kmh ) Pressure ( in mb ) Visibility ( mi km ) Precip ( " mm )
12:54 am 00:54 Cloudy 31 -0.6 17 -8.3 56 56 NE 6 9 30.29 1026 10 16 N/A
1:54 am 01:54 Cloudy 31 -0.6 16 -8.9 54 54 ENE 7 11 30.29 1026 10 16 N/A
2:54 am 02:54 Cloudy 30 -1.1 15 -9.4 54 54 NNE 6 9 30.29 1026 10 16 N/A
3:54 am 03:54 Cloudy 30 -1.1 13 -10.6 49 49 NNE 8 13 30.27 1025 10 16 N/A
4:54 am 04:54 Cloudy 30 -1.1 16 -8.9 56 56 NNE 5 7 30.27 1025 10 16 N/A
5:54 am 05:54 Cloudy 30 -1.1 13 -10.6 49 49 NE 10 17 30.26 1025 10 16 N/A
6:15 am 06:15 Cloudy 30 -1.1 13 -10.6 49 49 NE 9 15 30.27 1025 10 16 N/A
6:54 am 06:54 Cloudy 30 -1.1 13 -10.6 49 49 NE 8 13 30.27 1025 10 16 N/A
7:54 am 07:54 Cloudy 30 -1.1 12 -11.1 47 47 NNE 8 13 30.28 1025 10 16 N/A
8:46 am 08:46 Cloudy 30 -1.1 11 -11.7 45 45 NE 10 17 30.29 1026 10 16 N/A
8:54 am 08:54 Cloudy 30 -1.1 11 -11.7 45 45 NE 9 15 30.28 1025 10 16 N/A
9:36 am 09:36 Cloudy with Light Freezing Drizzle 30 -1.1 15 -9.4 54 54 ENE 10 17 30.28 1025 5 8 0.00 0.00
9:54 am 09:54 Cloudy with Light Freezing Rain 30 -1.1 17 -8.3 58 58 NE 10 17 30.27 1025 6 10 0.01 0.25
10:54 am 10:54 Cloudy with Light Freezing Rain 29 -1.7 20 -6.7 69 69 NE 8 13 30.28 1025 4 6 0.05 1.27
11:05 am 11:05 Cloudy with Light Freezing Rain 29 -1.7 20 -6.7 69 69 NE 8 13 30.28 1025 4 6 0.02 0.51
11:54 am 11:54 Cloudy with Light Freezing Rain 29 -1.7 22 -5.6 75 75 NE 9 15 30.27 1025 6 10 0.08 2.03
12:54 pm 12:54 Cloudy with Light Freezing Rain 29 -1.7 23 -5 78 78 NE 9 15 30.24 1024 5 8 0.05 1.27
1:21 pm 13:21 Cloudy with Light Freezing Rain 29 -1.7 23 -5 78 78 NNE 8 13 30.24 1024 5 8 0.02 0.51
1:54 pm 13:54 Cloudy with Light Freezing Rain 29 -1.7 24 -4.4 82 82 NNE 7 11 30.22 1023 4 6 0.05 1.27
2:42 pm 14:42 Cloudy with Light Freezing Rain 29 -1.7 24 -4.4 82 82 NE 8 13 30.20 1023 2 3 0.03 0.76
2:52 pm 14:52 Cloudy with Light Freezing Rain 28 -2 25 -4 86 86 NE 9 15 30.20 1023 3 5 0.04 1.02
2:54 pm 14:54 Cloudy with Light Freezing Rain 29 -1.7 24 -4.4 82 82 NE 9 15 30.19 1022 3 5 0.04 1.02
3:12 pm 15:12 Cloudy 28 -2.2 24 -4.4 85 85 NNE 8 13 30.20 1023 2 3 0.02 0.51
3:31 pm 15:31 Cloudy 28 -2.2 24 -4.4 85 85 N 7 11 30.20 1023 2 3 0.03 0.76
3:54 pm 15:54 Cloudy 29 -1.7 24 -4.4 82 82 NNE 7 11 30.19 1022 3 4 0.05 1.27
4:04 pm 16:04 Cloudy 28 -2.2 24 -4.4 85 85 N 7 11 30.20 1023 1 2 0.00 0.00
4:24 pm 16:24 Cloudy 29 -1.7 24 -4.4 82 82 NNE 7 11 30.19 1022 3 4 0.00 0.00
4:50 pm 16:50 Cloudy with Light Freezing Rain 28 -2 25 -4 86 86 NE 7 11 30.18 1022 6 10 0.00 0.00
4:54 pm 16:54 Cloudy with Light Freezing Rain 29 -1.7 23 -5 78 78 NE 7 11 30.17 1022 6 10 0.00 0.00
5:54 pm 17:54 Cloudy with Light Freezing Rain 29 -1.7 22 -5.6 75 75 NE 10 17 30.16 1022 7 11 0.01 0.25
6:54 pm 18:54 Cloudy with Light Freezing Rain 28 -2.2 22 -5.6 78 78 NNE 7 11 30.17 1022 8 13 0.00 0.00
7:11 pm 19:11 Cloudy with Light Freezing Drizzle 28 -2.2 21 -6.1 75 75 NNE 7 11 30.18 1022 8 13 0.00 0.00
7:36 pm 19:36 Cloudy 28 -2.2 21 -6.1 75 75 NNE 10 17 30.19 1022 9 14 0.00 0.00
7:54 pm 19:54 Cloudy 28 -2.2 21 -6.1 75 75 NE 9 15 30.18 1022 9 14 0.00 0.00
8:54 pm 20:54 Cloudy 28 -2.2 21 -6.1 75 75 NNE 7 11 30.17 1022 10 16 N/A
9:48 pm 21:48 Cloudy with Light Freezing Drizzle 27 -3 21 -6 80 80 NE 9 15 30.19 1022 5 8 0.00 0.00
9:54 pm 21:54 Cloudy with Light Freezing Drizzle 27 -2.8 22 -5.6 81 81 NNE 8 13 30.17 1022 3 5 0.00 0.00
10:54 pm 22:54 Cloudy with Mist and Fog 27 -2.8 23 -5 85 85 N 6 9 30.18 1022 6 10 0.00 0.00
11:11 pm 23:11 Cloudy with Mist and Fog 28 -2.2 24 -4.4 85 85 N 7 11 30.19 1022 6 10 N/A
11:54 pm 23:54 Cloudy with Mist and Fog 28 -2.2 24 -4.4 85 85 N 5 7 30.17 1022 5 8 N/A

Powered by AerisWeather